Bennington, VT

8:32 PM EDT on October 18, 2017 (GMT -0400)
Morse State

Weather History for KDDH - June, 2014

Change the Weather History Date:

Sunday, June 1, 2014

  Actual Average Record
Temperature  
Mean Temperature 59 °F 60 °F  
Max Temperature 75 °F 71 °F 89 °F (2013)
Min Temperature 42 °F 48 °F 34 °F (2001)
Degree Days  
Heating Degree Days 6 6  
Month to date heating degree days 6 6  
Since 1 June heating degree days 6 6  
Since 1 July heating degree days 7257 7145  
Cooling Degree Days 0 1  
Month to date cooling degree days 0 1  
Year to date cooling degree days 16 15  
Since 1 June cooling degree days 0 1  
Growing Degree Days 8 (Base 50)    
Moisture  
Dew Point 46 °F    
Average Humidity 67    
Maximum Humidity 100    
Minimum Humidity 33    
Precipitation  
Precipitation 0.00 in 0.14 in 0.74 in (2004)
Month to date precipitation 0.00 0.14  
Year to date precipitation 12.83 15.21  
Sea Level Pressure  
Sea Level Pressure 30.29 in    
Wind  
Wind Speed 3 mph (SSW)    
Max Wind Speed 9 mph    
Max Gust Speed 18 mph    
Visibility 10 miles    
Events      
T = Trace of Precipitation, MM = Missing Value Source: NWS Daily Summary

Daily Weather History Graph

Daily Weather History Graph

Search for Another Location

Airport or City:

Trip Planner

Search our weather history database for the weather conditions in past years. The results will help you decide how hot, cold, wet, or windy it might be!

Date:

Astronomy

Jun. 01, 2014 Rise Set
Actual Time 5:17 AM EDT 8:25 PM EDT
Civil Twilight 4:42 AM EDT 8:59 PM EDT
Nautical Twilight 3:58 AM EDT 9:43 PM EDT
Astronomical Twilight 3:05 AM EDT 10:36 PM EDT
Moon 8:49 AM EDT (6/1) 11:15 PM EDT (6/1)
Length of Visible Light 16h 16m
Length of Day
15h 08m
Waxing Crescent, 14% of the Moon is Illuminated
Jun 1
Waxing Crescent
Jun 5
First Quarter
Jun 13
Full
Jun 19
Last Quarter
Jun 27
New

Hourly Weather History & Observations

Time (EDT) Temp. Windchill Dew Point Humidity Pressure Visibility Wind Dir Wind Speed Gust Speed Precip Events Conditions
12:54 AM 51.1 °F - 46.9 °F 86% 30.31 in 10.0 mi Calm Calm - N/A   Clear
1:54 AM 50.0 °F - 46.0 °F 86% 30.32 in 10.0 mi SSW 3.5 mph - N/A   Clear
2:54 AM 46.0 °F 44.8 °F 44.1 °F 93% 30.32 in 10.0 mi South 3.5 mph - N/A   Clear
3:54 AM 46.0 °F - 44.1 °F 93% 30.33 in 9.0 mi Calm Calm - N/A   Clear
4:32 AM 43.0 °F - 42.1 °F 97% 30.33 in 2.5 mi Calm Calm - N/A   Clear
4:39 AM 43.0 °F 41.3 °F 42.1 °F 97% 30.33 in 10.0 mi SE 3.5 mph - N/A   Clear
5:54 AM 43.0 °F - 41.0 °F 93% 30.36 in 10.0 mi Calm Calm - N/A   Clear
6:54 AM 48.9 °F - 46.0 °F 90% 30.37 in 10.0 mi Calm Calm - N/A   Clear
7:54 AM 55.9 °F - 50.0 °F 80% 30.37 in 10.0 mi North 4.6 mph - N/A   Clear
10:54 AM 66.9 °F - 50.0 °F 54% 30.34 in 10.0 mi Calm Calm - N/A   Clear
11:54 AM 71.1 °F - 48.9 °F 45% 30.32 in 10.0 mi Variable 3.5 mph - N/A   Clear
12:54 PM 71.1 °F - 48.0 °F 44% 30.31 in 10.0 mi South 3.5 mph - N/A   Clear
1:54 PM 73.0 °F - 46.9 °F 39% 30.28 in 10.0 mi Variable 5.8 mph - N/A   Clear
2:54 PM 73.9 °F - 48.0 °F 40% 30.26 in 10.0 mi Variable 4.6 mph - N/A   Clear
3:54 PM 73.9 °F - 51.1 °F 45% 30.24 in 10.0 mi Variable 5.8 mph - N/A   Clear
4:54 PM 73.9 °F - 48.9 °F 41% 30.24 in 10.0 mi Variable 5.8 mph - N/A   Clear
5:54 PM 73.9 °F - 44.1 °F 34% 30.22 in 10.0 mi NNW 5.8 mph - N/A   Clear
6:54 PM 73.9 °F - 43.0 °F 33% 30.21 in 10.0 mi West 4.6 mph - N/A   Clear
7:54 PM 64.9 °F - 48.9 °F 56% 30.21 in 10.0 mi SSW 3.5 mph - N/A   Clear
8:54 PM 59.0 °F - 48.0 °F 67% 30.20 in 10.0 mi SSE 3.5 mph - N/A   Clear
9:54 PM 54.0 °F - 46.9 °F 77% 30.22 in 10.0 mi Calm Calm - N/A   Clear
11:54 PM 54.0 °F - 44.1 °F 69% 30.20 in 10.0 mi Calm Calm - N/A   Clear